Regional Weather Roundup
Issued by NWS

Home | Current Version | Previous Version | Text Only | Print | Product List | Glossary On
Versions: 1 2 3 4 5 6 7 8 9 10 11 12 13 14 15 16 17 18 19 20 21 22 23 24 25 26 27 28 29 30 31 32 33 34 35 36 37 38 39 40 41 42 43 44 45 46 47 48 49 50
000
ASUS43 KLSX 021959
RWRMO

WEATHER SUMMARY FOR MISSOURI
NATIONAL WEATHER SERVICE SPRINGFIELD MO
300 PM CDT TUE SEP 02 2014

NOTE: "FAIR" INDICATES FEW OR NO CLOUDS BELOW 12,000 FEET WITH NO
       SIGNIFICANT WEATHER AND/OR OBSTRUCTIONS TO VISIBILITY.
       CURRENT SKY AND/OR WEATHER CONDITIONS ARE NOT AVAILABLE FOR
       CHILLICOTHE AND FARMINGTON.

MOZ001>031-035>038-043-044-053-054-022100-
...NORTHERN AND WESTERN MISSOURI...

CITY           SKY/WX    TMP DP  RH WIND       PRES   REMARKS
KANSAS CTY INT PTSUNNY   81  67  62 SW9       30.00F
KANSAS C DTWN  MOSUNNY   82  67  60 SW8       29.98F
LEE`S SUMMIT   PTSUNNY   80  67  64 W7        30.01F
ST JOSEPH      SUNNY     83  64  52 NW7       29.99F

$$
MOZ066>068-077>081-088>096-101>105-022100-
...SOUTHWEST MISSOURI...

CITY           SKY/WX    TMP DP  RH WIND       PRES   REMARKS
SPRINGFIELD    CLOUDY    76  65  68 W8        30.01F
JOPLIN         CLOUDY    77  67  71 CALM      30.00F

$$
MOZ032>034-039>042-045>050-055>058-069>072-022100-
...CENTRAL MISSOURI...

CITY           SKY/WX    TMP DP  RH WIND       PRES   REMARKS
COLUMBIA       CLOUDY    79  71  76 W9        29.99F
JEFFERSON CITY CLOUDY    79  69  71 NW7       29.99F
ROLLA          CLOUDY    75  66  73 NW8       30.00F
SEDALIA        PTSUNNY   78  70  76 SW10      30.01F
OSAGE BEACH    CLOUDY    79  66  65 W9        30.00F

$$
MOZ051-052-059>065-022100-
...EAST CENTRAL MISSOURI...

CITY           SKY/WX    TMP DP  RH WIND       PRES   REMARKS
ST LOUIS INTL  PTSUNNY   82  69  64 NW9       29.98F
SPIRIT OF STL  CLOUDY    81  69  67 W7        29.96F
ST CHARLES     PTSUNNY   81  69  67 NW10      29.97F

$$
MOZ072>076-082>087-097>100-106>115-022100-
...SOUTH CENTRAL AND SOUTHEAST MISSOURI...

CITY           SKY/WX    TMP DP  RH WIND       PRES   REMARKS
CAPE GIRARDEAU CLOUDY    82  68  62 NW8       29.97F
FARMINGTON     CLOUDY    77  66  69 NW9       30.02F
POPLAR BLUFF   CLOUDY    83  65  54 NW6       29.95F
WEST PLAINS    CLOUDY    74  65  73 VRB6      30.02F

$$



USA.gov is the U.S. government's official web portal to all federal, state and local government web resources and services.